This is the latest recevied weather packets stored in our database for station/object KC1IUC-13. If no packets are shown the sender has not sent any weather packets the latest 1 day(s).
| Time | Temp. | Humidity | Pressure | Rain* | Wind** | Luminosity | Snow |
|---|---|---|---|---|---|---|---|
| 1778014804 | 24.44° C | 50% | 1003.9 hPa | 0 mm | 1.34 m/s, 178° | 84 W/m² | - |
| 1778014444 | 25° C | 50% | 1003.9 hPa | 0 mm | 1.34 m/s, 176° | 94 W/m² | - |
| 1778013904 | 25° C | 49% | 1003.9 hPa | 0 mm | 1.34 m/s, 187° | 84 W/m² | - |
| 1778013364 | 25° C | 49% | 1003.9 hPa | 0 mm | 1.34 m/s, 188° | 88 W/m² | - |
| 1778012824 | 25° C | 48% | 1004.2 hPa | 0 mm | 1.79 m/s, 171° | 97 W/m² | - |
| 1778012284 | 26.11° C | 47% | 1003.9 hPa | 0 mm | 1.79 m/s, 190° | 359 W/m² | - |
| 1778011744 | 26.67° C | 47% | 1004.2 hPa | 0 mm | 1.34 m/s, 191° | 494 W/m² | - |
| 1778011204 | 26.67° C | 46% | 1004.6 hPa | 0 mm | 1.79 m/s, 178° | 413 W/m² | - |
| 1778010843 | 27.22° C | 46% | 1004.2 hPa | 0 mm | 1.79 m/s, 167° | 475 W/m² | - |
| 1778010304 | 27.78° C | 45% | 1004.2 hPa | 0 mm | 1.79 m/s, 170° | 527 W/m² | - |
| 1778009764 | 27.78° C | 45% | 1004.6 hPa | 0 mm | 1.79 m/s, 193° | 536 W/m² | - |
| 1778009224 | 28.33° C | 45% | 1004.2 hPa | 0 mm | 1.79 m/s, 191° | 580 W/m² | - |
| 1778008683 | 28.33° C | 45% | 1004.2 hPa | 0 mm | 1.79 m/s, 170° | 553 W/m² | - |
| 1778008144 | 28.33° C | 46% | 1004.6 hPa | 0 mm | 1.79 m/s, 181° | 543 W/m² | - |
| 1778007604 | 28.89° C | 46% | 1004.6 hPa | 0 mm | 1.34 m/s, 175° | 545 W/m² | - |
| 1778007244 | 28.33° C | 46% | 1004.6 hPa | 0 mm | 1.79 m/s, 174° | 583 W/m² | - |
| 1778006704 | 28.89° C | 46% | 1004.6 hPa | 0 mm | 1.34 m/s, 178° | 548 W/m² | - |
| 1778006164 | 28.89° C | 47% | 1004.9 hPa | 0 mm | 1.79 m/s, 169° | 688 W/m² | - |
| 1778005624 | 28.33° C | 46% | 1004.9 hPa | 0 mm | 2.24 m/s, 174° | 413 W/m² | - |
| 1778005084 | 28.33° C | 47% | 1004.9 hPa | 0 mm | 1.34 m/s, 171° | 432 W/m² | - |
| 1778004544 | 28.33° C | 46% | 1004.9 hPa | 0 mm | 1.34 m/s, 169° | 277 W/m² | - |
| 1778004003 | 28.33° C | 46% | 1004.9 hPa | 0 mm | 1.79 m/s, 187° | 227 W/m² | - |
| 1778003644 | 28.33° C | 47% | 1004.9 hPa | 0 mm | 1.79 m/s, 173° | 537 W/m² | - |
| 1778003104 | 28.33° C | 48% | 1004.9 hPa | 0 mm | 1.79 m/s, 166° | 596 W/m² | - |
| 1778002564 | 27.78° C | 48% | 1004.9 hPa | 0 mm | 1.79 m/s, 176° | 571 W/m² | - |
* Rain latest hour (hover to see other rain measurements)
** Current wind speed in m/s (hover to see current wind gust speed)